Saint Bonnet de Bellac- Haute Vienne - France
Donnes mto: samedi, 29/10/2011
Date Horaire Temp. E. Hum. E. P.atmo. Pluie Vent Direction Direction Ensoleilleme Solaire P. de rose Temp au vent Rafales
29/10/2011 00:00 14,0 C 88 % 1022,7 hPa 0,0 mm 0,0 km/h (0 Bft) E-SE 112 0 min 0 W/m 12,0 C 14,0 C 0,0 km/h (0 Bft)
29/10/2011 00:05 13,9 C 88 % 1022,7 hPa 0,0 mm 0,0 km/h (0 Bft) E-SE 112 0 min 0 W/m 11,9 C 13,9 C 0,0 km/h (0 Bft)
29/10/2011 00:10 13,9 C 88 % 1022,7 hPa 0,0 mm 0,0 km/h (0 Bft) E-SE 112 0 min 0 W/m 11,9 C 13,9 C 0,0 km/h (0 Bft)
29/10/2011 00:15 13,8 C 88 % 1022,7 hPa 0,0 mm 0,0 km/h (0 Bft) E-SE 112 0 min 0 W/m 11,8 C 13,8 C 0,0 km/h (0 Bft)
29/10/2011 00:20 13,8 C 88 % 1022,8 hPa 0,0 mm 0,0 km/h (0 Bft) E-SE 112 0 min 0 W/m 11,8 C 13,8 C 0,0 km/h (0 Bft)
29/10/2011 00:25 13,8 C 88 % 1022,8 hPa 0,0 mm 0,0 km/h (0 Bft) E-SE 112 0 min 0 W/m 11,8 C 13,8 C 0,0 km/h (0 Bft)
29/10/2011 00:30 13,7 C 88 % 1022,8 hPa 0,0 mm 0,0 km/h (0 Bft) E-SE 112 0 min 0 W/m 11,7 C 13,7 C 0,0 km/h (0 Bft)
29/10/2011 00:35 13,6 C 88 % 1022,8 hPa 0,0 mm 0,0 km/h (0 Bft) E-SE 112 0 min 0 W/m 11,6 C 13,6 C 0,0 km/h (0 Bft)
29/10/2011 00:40 13,6 C 89 % 1022,8 hPa 0,0 mm 0,0 km/h (0 Bft) E-SE 112 0 min 0 W/m 11,8 C 13,6 C 0,0 km/h (0 Bft)
29/10/2011 00:45 13,6 C 89 % 1022,7 hPa 0,0 mm 0,0 km/h (0 Bft) E-SE 112 0 min 0 W/m 11,8 C 13,6 C 0,0 km/h (0 Bft)
29/10/2011 00:50 13,6 C 89 % 1022,7 hPa 0,0 mm 1,1 km/h (1 Bft) E-SE 112 0 min 0 W/m 11,8 C 13,6 C 4,0 km/h (1 Bft)
29/10/2011 00:55 13,6 C 89 % 1022,6 hPa 0,0 mm 0,0 km/h (0 Bft) E-SE 112 0 min 0 W/m 11,8 C 13,6 C 0,0 km/h (0 Bft)
29/10/2011 01:00 13,6 C 89 % 1022,6 hPa 0,0 mm 0,0 km/h (0 Bft) SE 135 0 min 0 W/m 11,8 C 13,6 C 0,0 km/h (0 Bft)
29/10/2011 01:05 13,6 C 89 % 1022,6 hPa 0,0 mm 0,0 km/h (0 Bft) SE 135 0 min 0 W/m 11,8 C 13,6 C 0,0 km/h (0 Bft)
29/10/2011 01:10 13,6 C 89 % 1022,5 hPa 0,0 mm 0,0 km/h (0 Bft) SE 135 0 min 0 W/m 11,8 C 13,6 C 0,0 km/h (0 Bft)
29/10/2011 01:15 13,6 C 89 % 1022,6 hPa 0,0 mm 0,0 km/h (0 Bft) SE 135 0 min 0 W/m 11,8 C 13,6 C 0,0 km/h (0 Bft)
29/10/2011 01:20 13,5 C 89 % 1022,7 hPa 0,0 mm 0,0 km/h (0 Bft) SE 135 0 min 0 W/m 11,7 C 13,5 C 3,6 km/h (1 Bft)
29/10/2011 01:25 13,4 C 89 % 1022,6 hPa 0,0 mm 0,0 km/h (0 Bft) SE 135 0 min 0 W/m 11,6 C 13,4 C 0,0 km/h (0 Bft)
29/10/2011 01:30 13,4 C 89 % 1022,7 hPa 0,0 mm 0,4 km/h (0 Bft) SE 135 0 min 0 W/m 11,6 C 13,4 C 0,4 km/h (0 Bft)
29/10/2011 01:35 13,4 C 89 % 1022,7 hPa 0,0 mm 0,0 km/h (0 Bft) SE 135 0 min 0 W/m 11,6 C 13,4 C 0,0 km/h (0 Bft)
29/10/2011 01:40 13,4 C 89 % 1022,6 hPa 0,0 mm 0,0 km/h (0 Bft) SE 135 0 min 0 W/m 11,6 C 13,4 C 0,0 km/h (0 Bft)
29/10/2011 01:45 13,4 C 89 % 1022,6 hPa 0,0 mm 0,4 km/h (0 Bft) E-SE 112 0 min 0 W/m 11,6 C 13,4 C 3,6 km/h (1 Bft)
29/10/2011 01:50 13,4 C 89 % 1022,5 hPa 0,0 mm 2,2 km/h (1 Bft) E-SE 112 0 min 0 W/m 11,6 C 13,4 C 4,0 km/h (1 Bft)
29/10/2011 01:55 13,4 C 90 % 1022,6 hPa 0,0 mm 1,4 km/h (1 Bft) SE 135 0 min 0 W/m 11,8 C 13,4 C 1,4 km/h (1 Bft)
29/10/2011 02:00 13,4 C 89 % 1022,6 hPa 0,0 mm 0,0 km/h (0 Bft) SE 135 0 min 0 W/m 11,6 C 13,4 C 0,0 km/h (0 Bft)
29/10/2011 02:05 13,4 C 89 % 1022,5 hPa 0,0 mm 0,0 km/h (0 Bft) SE 135 0 min 0 W/m 11,6 C 13,4 C 0,0 km/h (0 Bft)
29/10/2011 02:10 13,4 C 89 % 1022,6 hPa 0,0 mm 0,0 km/h (0 Bft) SE 135 0 min 0 W/m 11,6 C 13,4 C 0,0 km/h (0 Bft)
29/10/2011 02:15 13,4 C 89 % 1022,6 hPa 0,0 mm 0,0 km/h (0 Bft) SE 135 0 min 0 W/m 11,6 C 13,4 C 0,0 km/h (0 Bft)
29/10/2011 02:20 13,4 C 89 % 1022,5 hPa 0,0 mm 0,0 km/h (0 Bft) SE 135 0 min 0 W/m 11,6 C 13,4 C 0,0 km/h (0 Bft)
29/10/2011 02:25 13,4 C 89 % 1022,5 hPa 0,0 mm 0,0 km/h (0 Bft) SE 135 0 min 0 W/m 11,6 C 13,4 C 0,0 km/h (0 Bft)
29/10/2011 02:30 13,4 C 89 % 1022,5 hPa 0,0 mm 0,0 km/h (0 Bft) SE 135 0 min 0 W/m 11,6 C 13,4 C 0,0 km/h (0 Bft)
29/10/2011 02:35 13,3 C 89 % 1022,5 hPa 0,0 mm 0,4 km/h (0 Bft) SE 135 0 min 0 W/m 11,5 C 13,3 C 4,0 km/h (1 Bft)
29/10/2011 02:40 13,3 C 90 % 1022,5 hPa 0,0 mm 1,1 km/h (1 Bft) SE 135 0 min 0 W/m 11,7 C 13,3 C 1,1 km/h (1 Bft)
29/10/2011 02:45 13,3 C 89 % 1022,5 hPa 0,0 mm 0,7 km/h (0 Bft) SE 135 0 min 0 W/m 11,5 C 13,3 C 3,6 km/h (1 Bft)
29/10/2011 02:50 13,4 C 90 % 1022,4 hPa 0,0 mm 1,4 km/h (1 Bft) SE 135 0 min 0 W/m 11,8 C 13,4 C 4,3 km/h (1 Bft)
29/10/2011 02:55 13,4 C 90 % 1022,4 hPa 0,0 mm 0,0 km/h (0 Bft) E-SE 112 0 min 0 W/m 11,8 C 13,4 C 3,6 km/h (1 Bft)
29/10/2011 03:02 13,4 C 90 % 1022,3 hPa 0,0 mm 1,4 km/h (1 Bft) E-SE 112 0 min 0 W/m 11,8 C 13,4 C 4,0 km/h (1 Bft)
29/10/2011 03:05 13,4 C 90 % 1022,3 hPa 0,0 mm 1,4 km/h (1 Bft) E-SE 112 0 min 0 W/m 11,8 C 13,4 C 4,0 km/h (1 Bft)
29/10/2011 03:10 13,3 C 90 % 1022,3 hPa 0,0 mm 0,0 km/h (0 Bft) E-SE 112 0 min 0 W/m 11,7 C 13,3 C 0,0 km/h (0 Bft)
29/10/2011 03:15 13,3 C 90 % 1022,3 hPa 0,0 mm 0,4 km/h (0 Bft) SE 135 0 min 0 W/m 11,7 C 13,3 C 3,2 km/h (1 Bft)
29/10/2011 03:20 13,3 C 90 % 1022,2 hPa 0,0 mm 0,0 km/h (0 Bft) SE 135 0 min 0 W/m 11,7 C 13,3 C 0,0 km/h (0 Bft)
29/10/2011 03:25 13,3 C 90 % 1022,2 hPa 0,0 mm 1,8 km/h (1 Bft) SE 135 0 min 0 W/m 11,7 C 13,3 C 1,8 km/h (1 Bft)
29/10/2011 03:30 13,3 C 90 % 1022,2 hPa 0,0 mm 1,8 km/h (1 Bft) N 360 0 min 0 W/m 11,7 C 13,3 C 1,8 km/h (1 Bft)
29/10/2011 03:35 13,3 C 90 % 1022,2 hPa 0,0 mm 1,4 km/h (1 Bft) SE 135 0 min 0 W/m 11,7 C 13,3 C 4,3 km/h (1 Bft)
29/10/2011 03:40 13,2 C 90 % 1022,1 hPa 0,0 mm 0,7 km/h (0 Bft) E 90 0 min 0 W/m 11,6 C 13,2 C 4,0 km/h (1 Bft)
29/10/2011 03:45 13,2 C 90 % 1022,0 hPa 0,0 mm 1,4 km/h (1 Bft) E-SE 112 0 min 0 W/m 11,6 C 13,2 C 4,0 km/h (1 Bft)
29/10/2011 03:50 13,2 C 90 % 1022,0 hPa 0,0 mm 1,1 km/h (1 Bft) E-SE 112 0 min 0 W/m 11,6 C 13,2 C 3,6 km/h (1 Bft)
29/10/2011 03:55 13,2 C 90 % 1022,1 hPa 0,0 mm 0,0 km/h (0 Bft) SE 135 0 min 0 W/m 11,6 C 13,2 C 0,0 km/h (0 Bft)
29/10/2011 04:00 13,2 C 90 % 1022,0 hPa 0,0 mm 0,7 km/h (0 Bft) SE 135 0 min 0 W/m 11,6 C 13,2 C 3,6 km/h (1 Bft)
29/10/2011 04:05 13,2 C 90 % 1022,0 hPa 0,0 mm 0,0 km/h (0 Bft) E-SE 112 0 min 0 W/m 11,6 C 13,2 C 0,0 km/h (0 Bft)
29/10/2011 04:10 13,2 C 90 % 1022,0 hPa 0,0 mm 0,0 km/h (0 Bft) E-SE 112 0 min 0 W/m 11,6 C 13,2 C 0,0 km/h (0 Bft)
29/10/2011 04:15 13,1 C 90 % 1021,9 hPa 0,0 mm 1,4 km/h (1 Bft) E 90 0 min 0 W/m 11,5 C 13,1 C 6,5 km/h (2 Bft)
29/10/2011 04:20 13,1 C 90 % 1021,9 hPa 0,0 mm 2,5 km/h (1 Bft) E-NE 67 0 min 0 W/m 11,5 C 13,1 C 4,3 km/h (1 Bft)
29/10/2011 04:25 13,1 C 90 % 1021,9 hPa 0,0 mm 2,2 km/h (1 Bft) E-SE 112 0 min 0 W/m 11,5 C 13,1 C 3,6 km/h (1 Bft)
29/10/2011 04:30 13,2 C 90 % 1021,9 hPa 0,0 mm 0,0 km/h (0 Bft) SE 135 0 min 0 W/m 11,6 C 13,2 C 3,2 km/h (1 Bft)
29/10/2011 04:35 13,1 C 90 % 1021,9 hPa 0,0 mm 1,1 km/h (1 Bft) E-SE 112 0 min 0 W/m 11,5 C 13,1 C 3,6 km/h (1 Bft)
29/10/2011 04:40 13,1 C 90 % 1021,9 hPa 0,0 mm 0,4 km/h (0 Bft) E-SE 112 0 min 0 W/m 11,5 C 13,1 C 3,6 km/h (1 Bft)
29/10/2011 04:45 13,1 C 90 % 1021,8 hPa 0,0 mm 2,5 km/h (1 Bft) E-SE 112 0 min 0 W/m 11,5 C 13,1 C 4,3 km/h (1 Bft)
29/10/2011 04:50 13,1 C 90 % 1021,9 hPa 0,0 mm 2,9 km/h (1 Bft) SE 135 0 min 0 W/m 11,5 C 13,1 C 4,3 km/h (1 Bft)
29/10/2011 04:55 13,2 C 90 % 1021,9 hPa 0,0 mm 2,5 km/h (1 Bft) E-SE 112 0 min 0 W/m 11,6 C 13,2 C 3,2 km/h (1 Bft)
29/10/2011 05:00 13,2 C 90 % 1021,9 hPa 0,0 mm 1,8 km/h (1 Bft) E-SE 112 0 min 0 W/m 11,6 C 13,2 C 5,4 km/h (2 Bft)
29/10/2011 05:05 13,2 C 90 % 1021,9 hPa 0,0 mm 0,4 km/h (0 Bft) E-SE 112 0 min 0 W/m 11,6 C 13,2 C 3,6 km/h (1 Bft)
29/10/2011 05:10 13,3 C 89 % 1021,9 hPa 0,0 mm 0,4 km/h (0 Bft) E-SE 112 0 min 0 W/m 11,5 C 13,3 C 4,0 km/h (1 Bft)
29/10/2011 05:15 13,2 C 90 % 1022,0 hPa 0,0 mm 0,4 km/h (0 Bft) E-SE 112 0 min 0 W/m 11,6 C 13,2 C 3,2 km/h (1 Bft)
29/10/2011 05:20 13,2 C 89 % 1021,9 hPa 0,0 mm 2,2 km/h (1 Bft) E-SE 112 0 min 0 W/m 11,4 C 13,2 C 3,6 km/h (1 Bft)
29/10/2011 05:25 13,2 C 89 % 1021,9 hPa 0,0 mm 2,5 km/h (1 Bft) E-SE 112 0 min 0 W/m 11,4 C 13,2 C 4,0 km/h (1 Bft)
29/10/2011 05:30 13,2 C 90 % 1021,9 hPa 0,0 mm 0,0 km/h (0 Bft) E-SE 112 0 min 0 W/m 11,6 C 13,2 C 0,0 km/h (0 Bft)
29/10/2011 05:35 13,1 C 90 % 1021,9 hPa 0,0 mm 0,0 km/h (0 Bft) E-SE 112 0 min 0 W/m 11,5 C 13,1 C 2,2 km/h (1 Bft)
29/10/2011 05:40 13,1 C 90 % 1021,9 hPa 0,0 mm 0,0 km/h (0 Bft) E-SE 112 0 min 0 W/m 11,5 C 13,1 C 0,0 km/h (0 Bft)
29/10/2011 05:45 13,0 C 89 % 1021,9 hPa 0,0 mm 0,0 km/h (0 Bft) E-SE 112 0 min 0 W/m 11,2 C 13,0 C 0,0 km/h (0 Bft)
29/10/2011 05:50 13,0 C 90 % 1021,9 hPa 0,0 mm 0,0 km/h (0 Bft) E-SE 112 0 min 0 W/m 11,4 C 13,0 C 0,0 km/h (0 Bft)
29/10/2011 05:55 12,9 C 90 % 1021,9 hPa 0,0 mm 0,0 km/h (0 Bft) E-SE 112 0 min 0 W/m 11,3 C 12,9 C 0,0 km/h (0 Bft)
29/10/2011 06:00 12,9 C 90 % 1021,9 hPa 0,0 mm 0,0 km/h (0 Bft) E-SE 112 0 min 0 W/m 11,3 C 12,9 C 0,0 km/h (0 Bft)
29/10/2011 06:05 12,9 C 90 % 1021,9 hPa 0,0 mm 0,0 km/h (0 Bft) E-SE 112 0 min 0 W/m 11,3 C 12,9 C 2,9 km/h (1 Bft)
29/10/2011 06:10 12,9 C 90 % 1021,9 hPa 0,0 mm 0,4 km/h (0 Bft) E-SE 112 0 min 0 W/m 11,3 C 12,9 C 3,2 km/h (1 Bft)
29/10/2011 06:15 12,9 C 90 % 1021,9 hPa 0,0 mm 0,0 km/h (0 Bft) E-SE 112 0 min 0 W/m 11,3 C 12,9 C 0,0 km/h (0 Bft)
29/10/2011 06:20 12,9 C 90 % 1021,9 hPa 0,0 mm 0,0 km/h (0 Bft) E-SE 112 0 min 0 W/m 11,3 C 12,9 C 0,0 km/h (0 Bft)
29/10/2011 06:25 12,9 C 90 % 1021,9 hPa 0,0 mm 0,0 km/h (0 Bft) E-SE 112 0 min 0 W/m 11,3 C 12,9 C 0,0 km/h (0 Bft)
29/10/2011 06:30 12,9 C 90 % 1021,9 hPa 0,0 mm 0,0 km/h (0 Bft) E-SE 112 0 min 0 W/m 11,3 C 12,9 C 0,0 km/h (0 Bft)
29/10/2011 06:35 12,9 C 90 % 1021,9 hPa 0,0 mm 0,0 km/h (0 Bft) E-SE 112 0 min 0 W/m 11,3 C 12,9 C 0,0 km/h (0 Bft)
29/10/2011 06:40 12,9 C 90 % 1021,9 hPa 0,0 mm 0,0 km/h (0 Bft) E-SE 112 0 min 0 W/m 11,3 C 12,9 C 0,0 km/h (0 Bft)
29/10/2011 06:45 12,9 C 90 % 1021,9 hPa 0,0 mm 0,0 km/h (0 Bft) E-SE 112 0 min 0 W/m 11,3 C 12,9 C 0,0 km/h (0 Bft)
29/10/2011 06:50 12,8 C 90 % 1021,9 hPa 0,0 mm 0,0 km/h (0 Bft) E-SE 112 0 min 0 W/m 11,2 C 12,8 C 0,0 km/h (0 Bft)
29/10/2011 06:55 12,8 C 90 % 1021,9 hPa 0,0 mm 0,0 km/h (0 Bft) E-SE 112 0 min 0 W/m 11,2 C 12,8 C 0,0 km/h (0 Bft)
29/10/2011 07:00 12,8 C 90 % 1021,9 hPa 0,0 mm 0,4 km/h (0 Bft) E-SE 112 0 min 0 W/m 11,2 C 12,8 C 3,6 km/h (1 Bft)
29/10/2011 07:05 12,8 C 90 % 1021,8 hPa 0,0 mm 0,0 km/h (0 Bft) E-SE 112 0 min 0 W/m 11,2 C 12,8 C 0,0 km/h (0 Bft)
29/10/2011 07:10 12,8 C 90 % 1021,8 hPa 0,0 mm 0,0 km/h (0 Bft) E-SE 112 0 min 0 W/m 11,2 C 12,8 C 0,0 km/h (0 Bft)
29/10/2011 07:15 12,8 C 90 % 1021,8 hPa 0,0 mm 0,4 km/h (0 Bft) E-SE 112 0 min 0 W/m 11,2 C 12,8 C 2,9 km/h (1 Bft)
29/10/2011 07:20 12,8 C 90 % 1021,7 hPa 0,0 mm 0,0 km/h (0 Bft) E-SE 112 0 min 0 W/m 11,2 C 12,8 C 0,0 km/h (0 Bft)
29/10/2011 07:25 12,8 C 90 % 1021,8 hPa 0,0 mm 2,2 km/h (1 Bft) E 90 0 min 0 W/m 11,2 C 12,8 C 3,2 km/h (1 Bft)
29/10/2011 07:30 12,8 C 90 % 1021,7 hPa 0,0 mm 1,4 km/h (1 Bft) E 90 0 min 0 W/m 11,2 C 12,8 C 4,0 km/h (1 Bft)
29/10/2011 07:35 12,8 C 90 % 1021,6 hPa 0,0 mm 1,1 km/h (1 Bft) E-SE 112 0 min 0 W/m 11,2 C 12,8 C 3,6 km/h (1 Bft)
29/10/2011 07:40 12,8 C 90 % 1021,6 hPa 0,0 mm 2,9 km/h (1 Bft) E-SE 112 0 min 0 W/m 11,2 C 12,8 C 4,3 km/h (1 Bft)
29/10/2011 07:45 12,8 C 90 % 1021,6 hPa 0,0 mm 0,0 km/h (0 Bft) E-SE 112 0 min 0 W/m 11,2 C 12,8 C 0,0 km/h (0 Bft)
29/10/2011 07:50 12,9 C 90 % 1021,6 hPa 0,0 mm 0,0 km/h (0 Bft) E-SE 112 0 min 0 W/m 11,3 C 12,9 C 0,0 km/h (0 Bft)
29/10/2011 07:55 12,9 C 90 % 1021,6 hPa 0,0 mm 0,0 km/h (0 Bft) E-SE 112 0 min 0 W/m 11,3 C 12,9 C 0,0 km/h (0 Bft)
29/10/2011 08:00 12,9 C 90 % 1021,7 hPa 0,0 mm 0,0 km/h (0 Bft) E-SE 112 0 min 0 W/m 11,3 C 12,9 C 0,0 km/h (0 Bft)
29/10/2011 08:05 12,9 C 90 % 1021,7 hPa 0,0 mm 0,0 km/h (0 Bft) E-SE 112 0 min 0 W/m 11,3 C 12,9 C 0,0 km/h (0 Bft)
29/10/2011 08:10 12,9 C 90 % 1021,8 hPa 0,0 mm 2,5 km/h (1 Bft) S-SE 157 0 min 0 W/m 11,3 C 12,9 C 4,0 km/h (1 Bft)
29/10/2011 08:15 12,9 C 90 % 1021,9 hPa 0,0 mm 0,7 km/h (0 Bft) S-SE 157 0 min 0 W/m 11,3 C 12,9 C 4,3 km/h (1 Bft)
29/10/2011 08:20 13,1 C 90 % 1021,9 hPa 0,0 mm 1,4 km/h (1 Bft) S 180 0 min 0 W/m 11,5 C 13,1 C 4,0 km/h (1 Bft)
29/10/2011 08:25 13,1 C 90 % 1022,0 hPa 0,0 mm 0,4 km/h (0 Bft) SE 135 0 min 0 W/m 11,5 C 13,1 C 0,4 km/h (0 Bft)
29/10/2011 08:30 13,2 C 90 % 1022,0 hPa 0,0 mm 2,9 km/h (1 Bft) E-SE 112 0 min 0 W/m 11,6 C 13,2 C 4,3 km/h (1 Bft)
29/10/2011 08:35 13,3 C 90 % 1022,0 hPa 0,0 mm 2,9 km/h (1 Bft) SE 135 0 min 0 W/m 11,7 C 13,3 C 2,9 km/h (1 Bft)
29/10/2011 08:40 13,4 C 89 % 1022,1 hPa 0,0 mm 2,9 km/h (1 Bft) S 180 0 min 0 W/m 11,6 C 13,4 C 4,3 km/h (1 Bft)
29/10/2011 08:45 13,4 C 89 % 1022,2 hPa 0,0 mm 12,2 km/h (2 Bft) S-SE 157 0 min 0 W/m 11,6 C 13,4 C 17,3 km/h (3 Bft)
29/10/2011 08:50 13,5 C 89 % 1022,1 hPa 0,0 mm 1,8 km/h (1 Bft) S 180 0 min 0 W/m 11,7 C 13,5 C 4,3 km/h (1 Bft)
29/10/2011 08:55 13,5 C 89 % 1022,2 hPa 0,0 mm 6,8 km/h (2 Bft) S-SE 157 0 min 0 W/m 11,7 C 13,5 C 10,4 km/h (2 Bft)
29/10/2011 09:00 13,5 C 89 % 1022,2 hPa 0,0 mm 1,4 km/h (1 Bft) S-SE 157 0 min 0 W/m 11,7 C 13,5 C 7,2 km/h (2 Bft)
29/10/2011 09:05 13,5 C 88 % 1022,2 hPa 0,0 mm 2,9 km/h (1 Bft) S-SE 157 0 min 0 W/m 11,6 C 13,5 C 7,2 km/h (2 Bft)
29/10/2011 09:10 13,6 C 88 % 1022,2 hPa 0,0 mm 2,2 km/h (1 Bft) S-SO 202 0 min 0 W/m 11,6 C 13,6 C 4,3 km/h (1 Bft)
29/10/2011 09:15 13,6 C 88 % 1022,2 hPa 0,0 mm 7,6 km/h (2 Bft) S 180 0 min 0 W/m 11,6 C 13,6 C 9,7 km/h (2 Bft)
29/10/2011 09:20 13,6 C 88 % 1022,2 hPa 0,0 mm 7,9 km/h (2 Bft) S 180 0 min 0 W/m 11,6 C 13,6 C 11,2 km/h (2 Bft)
29/10/2011 09:25 13,6 C 88 % 1022,2 hPa 0,0 mm 2,9 km/h (1 Bft) S-SO 202 0 min 0 W/m 11,6 C 13,6 C 4,3 km/h (1 Bft)
29/10/2011 09:30 13,7 C 88 % 1022,3 hPa 0,0 mm 5,0 km/h (1 Bft) S 180 0 min 0 W/m 11,7 C 13,7 C 6,8 km/h (2 Bft)
29/10/2011 09:35 13,6 C 88 % 1022,3 hPa 0,0 mm 3,2 km/h (1 Bft) S 180 0 min 0 W/m 11,6 C 13,6 C 6,1 km/h (2 Bft)
29/10/2011 09:40 13,6 C 88 % 1022,3 hPa 0,0 mm 1,8 km/h (1 Bft) S-SO 202 0 min 0 W/m 11,6 C 13,6 C 5,0 km/h (1 Bft)
29/10/2011 09:45 13,7 C 88 % 1022,3 hPa 0,0 mm 2,2 km/h (1 Bft) S 180 0 min 0 W/m 11,7 C 13,7 C 6,5 km/h (2 Bft)
29/10/2011 09:50 13,7 C 88 % 1022,5 hPa 0,0 mm 2,2 km/h (1 Bft) S-SO 202 0 min 0 W/m 11,7 C 13,7 C 2,2 km/h (1 Bft)
29/10/2011 09:55 13,8 C 88 % 1022,5 hPa 0,0 mm 6,5 km/h (2 Bft) S 180 0 min 0 W/m 11,8 C 13,8 C 6,5 km/h (2 Bft)
29/10/2011 10:00 13,8 C 88 % 1022,5 hPa 0,0 mm 2,2 km/h (1 Bft) S 180 0 min 0 W/m 11,8 C 13,8 C 6,1 km/h (2 Bft)
29/10/2011 10:05 13,8 C 88 % 1022,5 hPa 0,0 mm 5,4 km/h (2 Bft) SO 225 0 min 0 W/m 11,8 C 13,8 C 7,2 km/h (2 Bft)
29/10/2011 10:10 13,8 C 88 % 1022,6 hPa 0,0 mm 4,3 km/h (1 Bft) S-SO 202 0 min 0 W/m 11,8 C 13,8 C 7,6 km/h (2 Bft)
29/10/2011 10:15 13,8 C 88 % 1022,6 hPa 0,0 mm 4,0 km/h (1 Bft) S-SO 202 0 min 0 W/m 11,8 C 13,8 C 6,8 km/h (2 Bft)
29/10/2011 10:20 13,9 C 88 % 1022,7 hPa 0,0 mm 4,0 km/h (1 Bft) S-SO 202 0 min 0 W/m 11,9 C 13,9 C 4,3 km/h (1 Bft)
29/10/2011 10:25 13,9 C 88 % 1022,7 hPa 0,0 mm 5,0 km/h (1 Bft) S 180 0 min 0 W/m 11,9 C 13,9 C 7,6 km/h (2 Bft)
29/10/2011 10:30 14,0 C 88 % 1022,7 hPa 0,0 mm 4,0 km/h (1 Bft) S-SE 157 0 min 0 W/m 12,0 C 14,0 C 7,9 km/h (2 Bft)
29/10/2011 10:35 14,1 C 88 % 1022,7 hPa 0,0 mm 5,4 km/h (2 Bft) S-SO 202 0 min 0 W/m 12,1 C 14,1 C 7,9 km/h (2 Bft)
29/10/2011 10:40 14,1 C 88 % 1022,8 hPa 0,0 mm 5,4 km/h (2 Bft) S 180 0 min 0 W/m 12,1 C 14,1 C 6,1 km/h (2 Bft)
29/10/2011 10:45 14,1 C 87 % 1022,8 hPa 0,0 mm 5,4 km/h (2 Bft) S-SE 157 0 min 0 W/m 12,0 C 14,1 C 6,8 km/h (2 Bft)
29/10/2011 10:50 14,1 C 88 % 1022,7 hPa 0,0 mm 7,2 km/h (2 Bft) SO 225 0 min 0 W/m 12,1 C 14,1 C 8,6 km/h (2 Bft)
29/10/2011 10:55 14,2 C 88 % 1022,8 hPa 0,0 mm 6,8 km/h (2 Bft) S-SO 202 0 min 0 W/m 12,2 C 14,2 C 6,8 km/h (2 Bft)
29/10/2011 11:00 14,2 C 87 % 1022,7 hPa 0,0 mm 5,8 km/h (2 Bft) S-SO 202 0 min 0 W/m 12,1 C 14,2 C 6,5 km/h (2 Bft)
29/10/2011 11:05 14,2 C 88 % 1022,6 hPa 0,0 mm 5,0 km/h (1 Bft) S-SO 202 0 min 0 W/m 12,2 C 14,2 C 8,6 km/h (2 Bft)
29/10/2011 11:10 14,3 C 88 % 1022,7 hPa 0,0 mm 5,0 km/h (1 Bft) S 180 0 min 0 W/m 12,3 C 14,3 C 11,2 km/h (2 Bft)
29/10/2011 11:15 14,3 C 88 % 1022,7 hPa 0,0 mm 6,1 km/h (2 Bft) S-SO 202 0 min 0 W/m 12,3 C 14,3 C 10,1 km/h (2 Bft)
29/10/2011 11:20 14,3 C 88 % 1022,8 hPa 0,0 mm 4,3 km/h (1 Bft) S 180 0 min 0 W/m 12,3 C 14,3 C 6,8 km/h (2 Bft)
29/10/2011 11:25 14,3 C 88 % 1022,7 hPa 0,0 mm 1,4 km/h (1 Bft) SO 225 0 min 0 W/m 12,3 C 14,3 C 1,4 km/h (1 Bft)
29/10/2011 11:30 14,3 C 88 % 1022,8 hPa 0,0 mm 6,5 km/h (2 Bft) S 180 0 min 0 W/m 12,3 C 14,3 C 6,5 km/h (2 Bft)
29/10/2011 11:35 14,3 C 88 % 1022,7 hPa 0,0 mm 5,0 km/h (1 Bft) S 180 0 min 0 W/m 12,3 C 14,3 C 6,8 km/h (2 Bft)
29/10/2011 11:40 14,3 C 88 % 1022,7 hPa 0,0 mm 6,5 km/h (2 Bft) S 180 0 min 0 W/m 12,3 C 14,3 C 9,4 km/h (2 Bft)
29/10/2011 11:45 14,3 C 88 % 1022,8 hPa 0,0 mm 4,0 km/h (1 Bft) S-SO 202 0 min 0 W/m 12,3 C 14,3 C 4,0 km/h (1 Bft)
29/10/2011 11:50 14,3 C 88 % 1022,7 hPa 0,0 mm 5,4 km/h (2 Bft) S 180 0 min 0 W/m 12,3 C 14,3 C 7,9 km/h (2 Bft)
29/10/2011 11:55 14,3 C 88 % 1022,8 hPa 0,0 mm 3,2 km/h (1 Bft) SO 225 0 min 0 W/m 12,3 C 14,3 C 4,0 km/h (1 Bft)
29/10/2011 12:00 14,4 C 88 % 1022,8 hPa 0,0 mm 6,8 km/h (2 Bft) SO 225 0 min 0 W/m 12,4 C 14,4 C 14,4 km/h (3 Bft)
29/10/2011 12:05 14,3 C 88 % 1022,9 hPa 0,0 mm 4,0 km/h (1 Bft) S 180 0 min 0 W/m 12,3 C 14,3 C 7,2 km/h (2 Bft)
29/10/2011 12:10 14,4 C 88 % 1022,9 hPa 0,0 mm 0,7 km/h (0 Bft) S-SO 202 0 min 0 W/m 12,4 C 14,4 C 4,3 km/h (1 Bft)
29/10/2011 12:15 14,4 C 88 % 1022,9 hPa 0,0 mm 4,3 km/h (1 Bft) S-SO 202 0 min 0 W/m 12,4 C 14,4 C 9,0 km/h (2 Bft)
29/10/2011 12:20 14,5 C 88 % 1022,9 hPa 0,0 mm 5,0 km/h (1 Bft) S-SO 202 0 min 0 W/m 12,5 C 14,5 C 7,9 km/h (2 Bft)
29/10/2011 12:25 14,5 C 88 % 1022,9 hPa 0,0 mm 5,8 km/h (2 Bft) S-SO 202 0 min 0 W/m 12,5 C 14,5 C 8,3 km/h (2 Bft)
29/10/2011 12:30 14,6 C 87 % 1023,0 hPa 0,0 mm 3,2 km/h (1 Bft) S-SO 202 0 min 0 W/m 12,5 C 14,6 C 3,2 km/h (1 Bft)
29/10/2011 12:35 14,7 C 87 % 1023,0 hPa 0,0 mm 5,8 km/h (2 Bft) S-SO 202 0 min 0 W/m 12,6 C 14,7 C 7,6 km/h (2 Bft)
29/10/2011 12:40 14,8 C 87 % 1023,0 hPa 0,0 mm 1,1 km/h (1 Bft) SO 225 0 min 0 W/m 12,7 C 14,8 C 1,1 km/h (1 Bft)
29/10/2011 12:45 14,8 C 87 % 1023,0 hPa 0,0 mm 4,3 km/h (1 Bft) S-SO 202 0 min 0 W/m 12,7 C 14,8 C 7,6 km/h (2 Bft)
29/10/2011 12:50 14,8 C 87 % 1022,9 hPa 0,0 mm 2,2 km/h (1 Bft) S-SO 202 0 min 0 W/m 12,7 C 14,8 C 4,3 km/h (1 Bft)
29/10/2011 12:55 15,1 C 87 % 1022,9 hPa 0,0 mm 2,9 km/h (1 Bft) SO 225 0 min 0 W/m 13,0 C 15,1 C 4,3 km/h (1 Bft)
29/10/2011 13:00 15,4 C 86 % 1023,2 hPa 0,0 mm 3,2 km/h (1 Bft) SO 225 0 min 0 W/m 13,1 C 15,4 C 4,0 km/h (1 Bft)
29/10/2011 13:05 15,5 C 84 % 1023,0 hPa 0,0 mm 3,2 km/h (1 Bft) S 180 0 min 0 W/m 12,8 C 15,5 C 3,2 km/h (1 Bft)
29/10/2011 13:10 15,6 C 84 % 1023,0 hPa 0,0 mm 5,4 km/h (2 Bft) S-SO 202 0 min 0 W/m 12,9 C 15,6 C 7,6 km/h (2 Bft)
29/10/2011 13:15 15,6 C 84 % 1023,1 hPa 0,0 mm 1,8 km/h (1 Bft) S-SO 202 0 min 0 W/m 12,9 C 15,6 C 7,6 km/h (2 Bft)
29/10/2011 13:20 15,8 C 84 % 1023,0 hPa 0,0 mm 6,5 km/h (2 Bft) SO 225 0 min 0 W/m 13,1 C 15,8 C 6,5 km/h (2 Bft)
29/10/2011 13:25 15,8 C 83 % 1023,0 hPa 0,0 mm 4,0 km/h (1 Bft) S-SO 202 0 min 0 W/m 12,9 C 15,8 C 4,0 km/h (1 Bft)
29/10/2011 13:30 15,8 C 83 % 1023,0 hPa 0,0 mm 5,0 km/h (1 Bft) S-SO 202 0 min 0 W/m 12,9 C 15,8 C 7,6 km/h (2 Bft)
29/10/2011 13:35 15,8 C 82 % 1023,0 hPa 0,0 mm 5,4 km/h (2 Bft) S-SO 202 0 min 0 W/m 12,7 C 15,8 C 5,4 km/h (2 Bft)
29/10/2011 13:40 15,8 C 83 % 1022,9 hPa 0,0 mm 2,2 km/h (1 Bft) S-SE 157 0 min 0 W/m 12,9 C 15,8 C 3,6 km/h (1 Bft)
29/10/2011 13:45 15,7 C 82 % 1022,8 hPa 0,0 mm 1,8 km/h (1 Bft) SO 225 0 min 0 W/m 12,6 C 15,7 C 6,1 km/h (2 Bft)
29/10/2011 13:50 15,7 C 82 % 1022,8 hPa 0,0 mm 3,2 km/h (1 Bft) SO 225 0 min 0 W/m 12,6 C 15,7 C 6,8 km/h (2 Bft)
29/10/2011 13:55 15,8 C 82 % 1022,8 hPa 0,0 mm 5,0 km/h (1 Bft) S-SE 157 0 min 0 W/m 12,7 C 15,8 C 7,2 km/h (2 Bft)
29/10/2011 14:00 15,8 C 82 % 1022,7 hPa 0,0 mm 2,9 km/h (1 Bft) SO 225 0 min 0 W/m 12,7 C 15,8 C 6,1 km/h (2 Bft)
29/10/2011 14:05 15,8 C 82 % 1022,8 hPa 0,0 mm 4,7 km/h (1 Bft) O-SO 247 0 min 0 W/m 12,7 C 15,8 C 6,8 km/h (2 Bft)
29/10/2011 14:10 15,8 C 82 % 1022,8 hPa 0,0 mm 2,2 km/h (1 Bft) S-SO 202 0 min 0 W/m 12,7 C 15,8 C 4,3 km/h (1 Bft)
29/10/2011 14:15 15,8 C 82 % 1022,7 hPa 0,0 mm 0,7 km/h (0 Bft) SO 225 0 min 0 W/m 12,7 C 15,8 C 4,0 km/h (1 Bft)
29/10/2011 14:20 15,8 C 82 % 1022,7 hPa 0,0 mm 3,2 km/h (1 Bft) SO 225 0 min 0 W/m 12,7 C 15,8 C 5,8 km/h (2 Bft)
29/10/2011 14:25 15,7 C 81 % 1022,7 hPa 0,0 mm 5,4 km/h (2 Bft) S-SO 202 0 min 0 W/m 12,4 C 15,7 C 6,1 km/h (2 Bft)
29/10/2011 14:30 15,6 C 81 % 1022,8 hPa 0,0 mm 3,2 km/h (1 Bft) SO 225 0 min 0 W/m 12,3 C 15,6 C 3,2 km/h (1 Bft)
29/10/2011 14:35 15,5 C 82 % 1022,6 hPa 0,0 mm 2,2 km/h (1 Bft) S 180 0 min 0 W/m 12,4 C 15,5 C 4,3 km/h (1 Bft)
29/10/2011 14:40 15,6 C 82 % 1022,4 hPa 0,0 mm 1,8 km/h (1 Bft) S-SE 157 0 min 0 W/m 12,5 C 15,6 C 3,6 km/h (1 Bft)
29/10/2011 14:45 15,8 C 82 % 1022,4 hPa 0,0 mm 4,7 km/h (1 Bft) S-SO 202 0 min 0 W/m 12,7 C 15,8 C 6,8 km/h (2 Bft)
29/10/2011 14:50 15,9 C 82 % 1022,5 hPa 0,0 mm 1,8 km/h (1 Bft) O-SO 247 0 min 0 W/m 12,8 C 15,9 C 3,6 km/h (1 Bft)
29/10/2011 14:55 16,2 C 81 % 1022,4 hPa 0,0 mm 4,0 km/h (1 Bft) S-SO 202 0 min 0 W/m 12,9 C 16,2 C 6,5 km/h (2 Bft)
29/10/2011 15:00 16,3 C 79 % 1022,4 hPa 0,0 mm 5,0 km/h (1 Bft) S-SO 202 0 min 0 W/m 12,6 C 16,3 C 7,9 km/h (2 Bft)
29/10/2011 15:05 16,4 C 80 % 1022,4 hPa 0,0 mm 4,7 km/h (1 Bft) SO 225 0 min 0 W/m 12,9 C 16,4 C 4,7 km/h (1 Bft)
29/10/2011 15:10 16,4 C 79 % 1022,4 hPa 0,0 mm 7,2 km/h (2 Bft) S-SO 202 0 min 0 W/m 12,7 C 16,4 C 8,3 km/h (2 Bft)
29/10/2011 15:15 16,6 C 79 % 1022,3 hPa 0,0 mm 1,4 km/h (1 Bft) S 180 0 min 0 W/m 12,9 C 16,6 C 5,8 km/h (2 Bft)
29/10/2011 15:20 16,6 C 78 % 1022,3 hPa 0,0 mm 2,9 km/h (1 Bft) S-SO 202 0 min 0 W/m 12,7 C 16,6 C 8,3 km/h (2 Bft)
29/10/2011 15:25 16,6 C 78 % 1022,1 hPa 0,0 mm 1,4 km/h (1 Bft) S-SO 202 0 min 0 W/m 12,7 C 16,6 C 3,2 km/h (1 Bft)
29/10/2011 15:30 16,5 C 78 % 1022,1 hPa 0,0 mm 0,7 km/h (0 Bft) SO 225 0 min 0 W/m 12,6 C 16,5 C 3,6 km/h (1 Bft)
29/10/2011 15:35 16,4 C 78 % 1022,2 hPa 0,0 mm 2,9 km/h (1 Bft) S-SO 202 0 min 0 W/m 12,6 C 16,4 C 4,3 km/h (1 Bft)
29/10/2011 15:40 16,3 C 78 % 1022,2 hPa 0,0 mm 4,3 km/h (1 Bft) SO 225 0 min 0 W/m 12,5 C 16,3 C 10,1 km/h (2 Bft)
29/10/2011 15:45 16,3 C 78 % 1022,2 hPa 0,0 mm 2,5 km/h (1 Bft) O-SO 247 0 min 0 W/m 12,5 C 16,3 C 4,0 km/h (1 Bft)
29/10/2011 15:50 16,2 C 79 % 1022,2 hPa 0,0 mm 4,3 km/h (1 Bft) SO 225 0 min 0 W/m 12,6 C 16,2 C 6,8 km/h (2 Bft)
29/10/2011 15:55 16,2 C 79 % 1022,2 hPa 0,0 mm 3,6 km/h (1 Bft) S-SO 202 0 min 0 W/m 12,6 C 16,2 C 6,8 km/h (2 Bft)
29/10/2011 16:00 16,2 C 79 % 1022,3 hPa 0,0 mm 5,4 km/h (2 Bft) S-SO 202 0 min 0 W/m 12,6 C 16,2 C 10,1 km/h (2 Bft)
29/10/2011 16:05 16,3 C 79 % 1022,2 hPa 0,0 mm 6,5 km/h (2 Bft) S 180 0 min 0 W/m 12,6 C 16,3 C 6,8 km/h (2 Bft)
29/10/2011 16:10 16,3 C 79 % 1022,1 hPa 0,0 mm 8,3 km/h (2 Bft) S-SO 202 0 min 0 W/m 12,6 C 16,3 C 9,4 km/h (2 Bft)
29/10/2011 16:15 16,4 C 80 % 1022,1 hPa 0,0 mm 8,6 km/h (2 Bft) S-SE 157 0 min 0 W/m 12,9 C 16,4 C 8,6 km/h (2 Bft)
29/10/2011 16:20 16,6 C 79 % 1022,2 hPa 0,0 mm 4,7 km/h (1 Bft) S-SO 202 0 min 0 W/m 12,9 C 16,6 C 7,2 km/h (2 Bft)
29/10/2011 16:25 16,9 C 78 % 1022,1 hPa 0,0 mm 4,0 km/h (1 Bft) S-SO 202 0 min 0 W/m 13,0 C 16,9 C 4,0 km/h (1 Bft)
29/10/2011 16:30 17,1 C 77 % 1022,0 hPa 0,0 mm 0,0 km/h (0 Bft) SO 225 0 min 0 W/m 13,0 C 17,1 C 3,6 km/h (1 Bft)
29/10/2011 16:35 17,1 C 77 % 1022,2 hPa 0,0 mm 3,2 km/h (1 Bft) S 180 0 min 0 W/m 13,0 C 17,1 C 6,1 km/h (2 Bft)
29/10/2011 16:40 17,1 C 77 % 1022,1 hPa 0,0 mm 5,4 km/h (2 Bft) S 180 0 min 0 W/m 13,0 C 17,1 C 7,2 km/h (2 Bft)
29/10/2011 16:45 16,9 C 77 % 1022,2 hPa 0,0 mm 0,7 km/h (0 Bft) S 180 0 min 0 W/m 12,8 C 16,9 C 4,0 km/h (1 Bft)
29/10/2011 16:50 16,9 C 77 % 1022,1 hPa 0,0 mm 2,9 km/h (1 Bft) S-SO 202 0 min 0 W/m 12,8 C 16,9 C 3,6 km/h (1 Bft)
29/10/2011 16:55 16,8 C 77 % 1022,1 hPa 0,0 mm 1,8 km/h (1 Bft) S-SO 202 0 min 0 W/m 12,7 C 16,8 C 4,3 km/h (1 Bft)
29/10/2011 17:00 16,8 C 77 % 1022,2 hPa 0,0 mm 2,2 km/h (1 Bft) O-SO 247 0 min 0 W/m 12,7 C 16,8 C 4,3 km/h (1 Bft)
29/10/2011 17:05 16,6 C 77 % 1022,1 hPa 0,0 mm 1,8 km/h (1 Bft) S 180 0 min 0 W/m 12,5 C 16,6 C 4,3 km/h (1 Bft)
29/10/2011 17:10 16,6 C 78 % 1022,1 hPa 0,0 mm 2,2 km/h (1 Bft) S-SO 202 0 min 0 W/m 12,7 C 16,6 C 3,6 km/h (1 Bft)
29/10/2011 17:15 16,5 C 77 % 1022,2 hPa 0,0 mm 3,2 km/h (1 Bft) S-SO 202 0 min 0 W/m 12,5 C 16,5 C 3,2 km/h (1 Bft)
29/10/2011 17:20 16,4 C 78 % 1022,2 hPa 0,0 mm 0,7 km/h (0 Bft) S-SE 157 0 min 0 W/m 12,6 C 16,4 C 3,2 km/h (1 Bft)
29/10/2011 17:25 16,3 C 78 % 1022,1 hPa 0,0 mm 1,1 km/h (1 Bft) S 180 0 min 0 W/m 12,5 C 16,3 C 3,2 km/h (1 Bft)
29/10/2011 17:30 16,3 C 79 % 1022,0 hPa 0,0 mm 2,2 km/h (1 Bft) S 180 0 min 0 W/m 12,6 C 16,3 C 4,0 km/h (1 Bft)
29/10/2011 17:35 16,2 C 79 % 1022,0 hPa 0,0 mm 5,8 km/h (2 Bft) S-SO 202 0 min 0 W/m 12,6 C 16,2 C 9,0 km/h (2 Bft)
29/10/2011 17:40 16,1 C 79 % 1021,9 hPa 0,0 mm 0,0 km/h (0 Bft) S 180 0 min 0 W/m 12,5 C 16,1 C 0,0 km/h (0 Bft)
29/10/2011 17:45 16,1 C 79 % 1022,1 hPa 0,0 mm 1,1 km/h (1 Bft) S-SE 157 0 min 0 W/m 12,5 C 16,1 C 3,6 km/h (1 Bft)
29/10/2011 17:50 15,9 C 80 % 1022,0 hPa 0,0 mm 0,4 km/h (0 Bft) S 180 0 min 0 W/m 12,5 C 15,9 C 3,2 km/h (1 Bft)
29/10/2011 17:55 15,9 C 80 % 1022,0 hPa 0,0 mm 0,4 km/h (0 Bft) S 180 0 min 0 W/m 12,5 C 15,9 C 0,4 km/h (0 Bft)
29/10/2011 18:00 15,8 C 80 % 1022,0 hPa 0,0 mm 0,0 km/h (0 Bft) S 180 0 min 0 W/m 12,4 C 15,8 C 0,0 km/h (0 Bft)
29/10/2011 18:05 15,8 C 80 % 1022,0 hPa 0,0 mm 0,0 km/h (0 Bft) S 180 0 min 0 W/m 12,4 C 15,8 C 0,0 km/h (0 Bft)
29/10/2011 18:10 15,8 C 81 % 1022,0 hPa 0,0 mm 1,8 km/h (1 Bft) S 180 0 min 0 W/m 12,5 C 15,8 C 4,3 km/h (1 Bft)
29/10/2011 18:15 15,7 C 81 % 1022,1 hPa 0,0 mm 0,0 km/h (0 Bft) S-SE 157 0 min 0 W/m 12,4 C 15,7 C 0,0 km/h (0 Bft)
29/10/2011 18:20 15,6 C 81 % 1022,1 hPa 0,0 mm 0,0 km/h (0 Bft) S-SO 202 0 min 0 W/m 12,3 C 15,6 C 4,0 km/h (1 Bft)
29/10/2011 18:25 15,5 C 81 % 1022,2 hPa 0,0 mm 1,4 km/h (1 Bft) S-SO 202 0 min 0 W/m 12,3 C 15,5 C 4,3 km/h (1 Bft)
29/10/2011 18:30 15,4 C 82 % 1022,2 hPa 0,0 mm 1,4 km/h (1 Bft) N 360 0 min 0 W/m 12,3 C 15,4 C 1,4 km/h (1 Bft)
29/10/2011 18:35 15,4 C 82 % 1022,2 hPa 0,0 mm 1,4 km/h (1 Bft) S-SO 202 0 min 0 W/m 12,3 C 15,4 C 4,0 km/h (1 Bft)
29/10/2011 18:40 15,4 C 82 % 1022,3 hPa 0,0 mm 2,5 km/h (1 Bft) S-SO 202 0 min 0 W/m 12,3 C 15,4 C 4,0 km/h (1 Bft)
29/10/2011 18:45 15,3 C 82 % 1022,2 hPa 0,0 mm 1,1 km/h (1 Bft) S 180 0 min 0 W/m 12,2 C 15,3 C 6,8 km/h (2 Bft)
29/10/2011 18:50 15,2 C 83 % 1022,4 hPa 0,0 mm 0,0 km/h (0 Bft) S-SO 202 0 min 0 W/m 12,3 C 15,2 C 0,0 km/h (0 Bft)
29/10/2011 18:55 15,1 C 83 % 1022,4 hPa 0,0 mm 0,0 km/h (0 Bft) S-SO 202 0 min 0 W/m 12,2 C 15,1 C 0,0 km/h (0 Bft)
29/10/2011 19:00 15,1 C 83 % 1022,3 hPa 0,0 mm 0,0 km/h (0 Bft) SO 225 0 min 0 W/m 12,2 C 15,1 C 0,0 km/h (0 Bft)
29/10/2011 19:05 15,1 C 84 % 1022,4 hPa 0,0 mm 0,0 km/h (0 Bft) SO 225 0 min 0 W/m 12,4 C 15,1 C 3,6 km/h (1 Bft)
29/10/2011 19:10 15,0 C 84 % 1022,4 hPa 0,0 mm 0,0 km/h (0 Bft) SO 225 0 min 0 W/m 12,3 C 15,0 C 0,0 km/h (0 Bft)
29/10/2011 19:15 14,9 C 84 % 1022,3 hPa 0,0 mm 0,0 km/h (0 Bft) SO 225 0 min 0 W/m 12,2 C 14,9 C 0,0 km/h (0 Bft)
29/10/2011 19:20 14,9 C 84 % 1022,3 hPa 0,0 mm 0,0 km/h (0 Bft) SO 225 0 min 0 W/m 12,2 C 14,9 C 0,0 km/h (0 Bft)
29/10/2011 19:25 14,9 C 84 % 1022,3 hPa 0,0 mm 0,0 km/h (0 Bft) SO 225 0 min 0 W/m 12,2 C 14,9 C 0,0 km/h (0 Bft)
29/10/2011 19:30 14,8 C 84 % 1022,3 hPa 0,0 mm 0,0 km/h (0 Bft) SO 225 0 min 0 W/m 12,1 C 14,8 C 0,0 km/h (0 Bft)
29/10/2011 19:35 14,8 C 84 % 1022,3 hPa 0,0 mm 0,0 km/h (0 Bft) O 270 0 min 0 W/m 12,1 C 14,8 C 0,0 km/h (0 Bft)
29/10/2011 19:40 14,8 C 85 % 1022,3 hPa 0,0 mm 0,0 km/h (0 Bft) O 270 0 min 0 W/m 12,3 C 14,8 C 0,0 km/h (0 Bft)
29/10/2011 19:45 14,7 C 85 % 1022,4 hPa 0,0 mm 0,0 km/h (0 Bft) O 270 0 min 0 W/m 12,2 C 14,7 C 0,0 km/h (0 Bft)
29/10/2011 19:50 14,6 C 85 % 1022,4 hPa 0,0 mm 0,0 km/h (0 Bft) O 270 0 min 0 W/m 12,1 C 14,6 C 0,0 km/h (0 Bft)
29/10/2011 19:55 14,6 C 85 % 1022,5 hPa 0,0 mm 0,0 km/h (0 Bft) O 270 0 min 0 W/m 12,1 C 14,6 C 0,0 km/h (0 Bft)
29/10/2011 20:00 14,6 C 85 % 1022,6 hPa 0,0 mm 0,0 km/h (0 Bft) O 270 0 min 0 W/m 12,1 C 14,6 C 0,0 km/h (0 Bft)
29/10/2011 20:05 14,5 C 85 % 1022,6 hPa 0,0 mm 0,0 km/h (0 Bft) O 270 0 min 0 W/m 12,0 C 14,5 C 0,0 km/h (0 Bft)
29/10/2011 20:10 14,5 C 86 % 1022,6 hPa 0,0 mm 0,0 km/h (0 Bft) O 270 0 min 0 W/m 12,2 C 14,5 C 0,0 km/h (0 Bft)
29/10/2011 20:15 14,4 C 85 % 1022,7 hPa 0,0 mm 0,0 km/h (0 Bft) O 270 0 min 0 W/m 11,9 C 14,4 C 0,0 km/h (0 Bft)
29/10/2011 20:20 14,4 C 85 % 1022,6 hPa 0,0 mm 0,0 km/h (0 Bft) O 270 0 min 0 W/m 11,9 C 14,4 C 0,0 km/h (0 Bft)
29/10/2011 20:25 14,3 C 85 % 1022,5 hPa 0,0 mm 0,0 km/h (0 Bft) S-SO 202 0 min 0 W/m 11,8 C 14,3 C 0,0 km/h (0 Bft)
29/10/2011 20:30 14,3 C 86 % 1022,5 hPa 0,0 mm 0,0 km/h (0 Bft) S-SE 157 0 min 0 W/m 12,0 C 14,3 C 0,0 km/h (0 Bft)
29/10/2011 20:35 14,3 C 86 % 1022,6 hPa 0,0 mm 0,0 km/h (0 Bft) S-SE 157 0 min 0 W/m 12,0 C 14,3 C 0,0 km/h (0 Bft)
29/10/2011 20:40 14,2 C 86 % 1022,7 hPa 0,0 mm 0,0 km/h (0 Bft) S-SE 157 0 min 0 W/m 11,9 C 14,2 C 0,0 km/h (0 Bft)
29/10/2011 20:45 14,1 C 86 % 1022,7 hPa 0,0 mm 0,0 km/h (0 Bft) S-SE 157 0 min 0 W/m 11,8 C 14,1 C 0,0 km/h (0 Bft)
29/10/2011 20:50 13,9 C 86 % 1022,7 hPa 0,0 mm 0,0 km/h (0 Bft) S-SE 157 0 min 0 W/m 11,6 C 13,9 C 0,0 km/h (0 Bft)
29/10/2011 20:55 13,8 C 86 % 1022,8 hPa 0,0 mm 0,0 km/h (0 Bft) S-SE 157 0 min 0 W/m 11,5 C 13,8 C 0,0 km/h (0 Bft)
29/10/2011 21:00 13,8 C 87 % 1022,8 hPa 0,0 mm 0,0 km/h (0 Bft) S-SE 157 0 min 0 W/m 11,7 C 13,8 C 0,0 km/h (0 Bft)
29/10/2011 21:05 13,6 C 87 % 1022,9 hPa 0,0 mm 0,0 km/h (0 Bft) S-SE 157 0 min 0 W/m 11,5 C 13,6 C 0,0 km/h (0 Bft)
29/10/2011 21:10 13,5 C 88 % 1022,9 hPa 0,0 mm 0,0 km/h (0 Bft) S-SE 157 0 min 0 W/m 11,6 C 13,5 C 0,0 km/h (0 Bft)
29/10/2011 21:15 13,5 C 88 % 1022,9 hPa 0,0 mm 0,0 km/h (0 Bft) S-SE 157 0 min 0 W/m 11,6 C 13,5 C 0,0 km/h (0 Bft)
29/10/2011 21:20 13,4 C 88 % 1022,9 hPa 0,0 mm 0,0 km/h (0 Bft) S-SE 157 0 min 0 W/m 11,5 C 13,4 C 0,0 km/h (0 Bft)
29/10/2011 21:25 13,4 C 88 % 1022,9 hPa 0,0 mm 0,0 km/h (0 Bft) S-SE 157 0 min 0 W/m 11,5 C 13,4 C 0,0 km/h (0 Bft)
29/10/2011 21:30 13,4 C 88 % 1022,9 hPa 0,0 mm 0,0 km/h (0 Bft) S-SE 157 0 min 0 W/m 11,5 C 13,4 C 0,0 km/h (0 Bft)
29/10/2011 21:35 13,3 C 88 % 1022,9 hPa 0,0 mm 0,0 km/h (0 Bft) S-SE 157 0 min 0 W/m 11,4 C 13,3 C 0,0 km/h (0 Bft)
29/10/2011 21:40 13,3 C 88 % 1023,0 hPa 0,0 mm 0,0 km/h (0 Bft) S-SE 157 0 min 0 W/m 11,4 C 13,3 C 0,0 km/h (0 Bft)
29/10/2011 21:45 13,2 C 88 % 1023,0 hPa 0,0 mm 0,0 km/h (0 Bft) S-SE 157 0 min 0 W/m 11,3 C 13,2 C 0,0 km/h (0 Bft)
29/10/2011 21:50 13,2 C 89 % 1023,0 hPa 0,0 mm 0,0 km/h (0 Bft) S-SE 157 0 min 0 W/m 11,4 C 13,2 C 0,0 km/h (0 Bft)
29/10/2011 21:55 13,1 C 89 % 1023,1 hPa 0,0 mm 0,0 km/h (0 Bft) S-SE 157 0 min 0 W/m 11,3 C 13,1 C 0,0 km/h (0 Bft)
29/10/2011 22:00 12,9 C 89 % 1023,0 hPa 0,0 mm 0,0 km/h (0 Bft) S-SE 157 0 min 0 W/m 11,1 C 12,9 C 0,0 km/h (0 Bft)
29/10/2011 22:05 12,8 C 89 % 1023,1 hPa 0,0 mm 0,0 km/h (0 Bft) S-SE 157 0 min 0 W/m 11,0 C 12,8 C 0,0 km/h (0 Bft)
29/10/2011 22:10 12,6 C 89 % 1023,1 hPa 0,0 mm 0,0 km/h (0 Bft) S-SE 157 0 min 0 W/m 10,8 C 12,6 C 0,0 km/h (0 Bft)
29/10/2011 22:15 12,5 C 89 % 1023,0 hPa 0,0 mm 0,0 km/h (0 Bft) S-SE 157 0 min 0 W/m 10,7 C 12,5 C 0,0 km/h (0 Bft)
29/10/2011 22:20 12,3 C 89 % 1023,1 hPa 0,0 mm 0,0 km/h (0 Bft) S-SE 157 0 min 0 W/m 10,5 C 12,3 C 0,0 km/h (0 Bft)
29/10/2011 22:25 12,2 C 89 % 1023,1 hPa 0,0 mm 0,0 km/h (0 Bft) S-SE 157 0 min 0 W/m 10,4 C 12,2 C 0,0 km/h (0 Bft)
29/10/2011 22:30 12,0 C 90 % 1023,1 hPa 0,0 mm 0,0 km/h (0 Bft) S-SE 157 0 min 0 W/m 10,4 C 12,0 C 0,0 km/h (0 Bft)
29/10/2011 22:35 11,8 C 90 % 1023,1 hPa 0,0 mm 0,0 km/h (0 Bft) S-SE 157 0 min 0 W/m 10,2 C 11,8 C 0,0 km/h (0 Bft)
29/10/2011 22:40 11,8 C 90 % 1023,1 hPa 0,0 mm 0,0 km/h (0 Bft) S-SE 157 0 min 0 W/m 10,2 C 11,8 C 0,0 km/h (0 Bft)
29/10/2011 22:45 11,8 C 90 % 1023,2 hPa 0,0 mm 0,0 km/h (0 Bft) S-SE 157 0 min 0 W/m 10,2 C 11,8 C 0,0 km/h (0 Bft)
29/10/2011 22:50 11,6 C 90 % 1023,1 hPa 0,0 mm 0,0 km/h (0 Bft) S-SE 157 0 min 0 W/m 10,0 C 11,6 C 0,0 km/h (0 Bft)
29/10/2011 22:55 11,6 C 90 % 1023,1 hPa 0,0 mm 0,0 km/h (0 Bft) S-SE 157 0 min 0 W/m 10,0 C 11,6 C 0,0 km/h (0 Bft)
29/10/2011 23:00 11,5 C 91 % 1023,1 hPa 0,0 mm 0,0 km/h (0 Bft) S-SE 157 0 min 0 W/m 10,1 C 11,5 C 0,0 km/h (0 Bft)
29/10/2011 23:05 11,4 C 91 % 1023,1 hPa 0,0 mm 0,0 km/h (0 Bft) S-SO 202 0 min 0 W/m 10,0 C 11,4 C 3,6 km/h (1 Bft)
29/10/2011 23:10 11,4 C 91 % 1023,2 hPa 0,0 mm 0,0 km/h (0 Bft) S-SO 202 0 min 0 W/m 10,0 C 11,4 C 0,0 km/h (0 Bft)
29/10/2011 23:15 11,4 C 91 % 1023,1 hPa 0,0 mm 0,0 km/h (0 Bft) S-SO 202 0 min 0 W/m 10,0 C 11,4 C 0,0 km/h (0 Bft)
29/10/2011 23:20 11,4 C 91 % 1023,2 hPa 0,0 mm 0,0 km/h (0 Bft) S-SO 202 0 min 0 W/m 10,0 C 11,4 C 0,0 km/h (0 Bft)
29/10/2011 23:25 11,5 C 92 % 1023,2 hPa 0,0 mm 0,0 km/h (0 Bft) S-SO 202 0 min 0 W/m 10,2 C 11,5 C 0,0 km/h (0 Bft)
29/10/2011 23:30 11,5 C 92 % 1023,2 hPa 0,0 mm 0,0 km/h (0 Bft) S-SO 202 0 min 0 W/m 10,2 C 11,5 C 0,0 km/h (0 Bft)
_ Min-Heure 23:20 17:15 07:55 - 23:30 - - - - 23:20 23:20 23:30
Minimum _ 11,4 C 77 % 1021,6 hPa - 0,0 km/h (0 Bft) - - - - 10,0 C 11,4 C 0,0 km/h (0 Bft)
_ Max-Heure 16:40 23:30 23:30 23:30 08:45 - - 23:30 23:30 13:20 16:40 08:45
Maximum _ 17,1 C 92 % 1023,2 hPa 0,0 mm 12,2 km/h
S-SE (2 Bft)
- - 0 min 0 W/m 13,1 C 17,1 C 17,3 km/h
S-SE (3 Bft)
Moyenne _ 14,1 C 86 % 1022,4 hPa #0,0 mm 1,8 km/h (1 Bft) E-SE - #0 min. 0 W/m 11,9 C 14,1 C 3,2 km/h (1 Bft)
Saint Bonnet de Bellac- Haute Vienne - France